Location: Maiden
(35.5760°N, 81.2120°W)
Time: 20:38:21
(UTC-04:00)

Daily predictions for brighter satellites

Satellite Brightness Start Highest point End
(mag) Time Altitude Azimuth Time Altitude Azimuth Time Altitude Azimuth
ATLAS 3B R/B 3.1 20:53:34 10° SSW 21:01:06 84° WNW 21:08:22 10° NNE
Cosmos 2297 3.7 20:59:25 10° SSW 21:05:03 76° ESE 21:10:41 10° NNE
Cosmos 1869 3.3 21:04:20 10° N 21:08:19 85° E 21:12:18 10° S
Cosmos 1833 Rocket 3.2 21:05:18 10° N 21:10:41 44° ENE 21:16:01 10° SE
Cosmos 923 Rocket 4.0 21:05:49 10° NNW 21:11:06 75° ENE 21:16:22 10° SSE
Helios 1B rocket 3.2 21:07:36 10° NNE 21:11:19 32° E 21:15:00 10° SSE
USA 238 DEB 3.8 21:06:48 10° SSW 21:13:45 88° WNW 21:20:47 10° NNE
USA 238 3.8 21:06:55 10° SSW 21:13:52 89° WNW 21:20:53 10° NNE
YAOGAN 6 3.8 21:11:53 10° SE 21:15:03 27° ENE 21:18:12 10° NNE
Spot 2 Rocket 3.7 21:13:17 10° S 21:18:21 75° WSW 21:23:29 10° NNW
Shenzhou-11 Module 4.4 21:18:06 10° NW 21:20:30 20° N 21:22:54 10° NE
Meteor 2-10 Rocket 4.2 21:15:11 10° N 21:20:47 47° ENE 21:26:21 10° SSE
Helios 1A 3.6 21:17:00 10° SE 21:20:53 40° ENE 21:24:49 10° N
Cosmos 1892 4.0 21:20:14 10° SE 21:23:18 23° E 21:26:22 10° NE
Cosmos 1470 Rocket 3.7 21:19:28 10° S 21:23:49 55° E 21:28:12 10° NNE
GPS 2-04 Rocket1 3.2 21:21:58 10° SW 21:25:14 31° SSE 21:28:12 11° E
Cosmos 2034 Rocket 4.0 21:19:07 10° N 21:25:17 63° E 21:31:22 10° SSE
ERS-1 Rocket 4.1 21:23:06 11° ESE 21:27:03 27° ENE 21:31:13 10° NNE
NOSS 3-2 (A) 3.4 21:27:57 10° SSW 21:33:44 63° ESE 21:40:02 10° NE
Cosmos 1464 Rocket 4.2 21:28:40 10° N 21:35:00 79° W 21:41:20 10° S
Cosmos 1400 Rocket 4.0 21:33:27 10° SSW 21:37:25 47° W 21:41:21 10° N
Cosmos 2112 Rocket 4.0 21:33:47 10° NNW 21:39:10 87° ENE 21:44:27 10° SSE
Cosmos 1680 Rocket 3.7 21:37:28 10° NNW 21:42:47 73° WSW 21:48:03 10° S
Cosmos 1943 Rocket 4.0 21:44:10 11° E 21:44:10 11° E 21:45:41 10° ENE
Cosmos 1898 Rocket 3.5 21:38:55 10° SSW 21:44:10 84° ESE 21:49:30 10° NNE
Cosmos 858 Rocket 4.4 21:39:30 10° S 21:44:38 72° ESE 21:49:50 10° NNE
Envisat 3.5 21:39:58 10° S 21:44:57 62° W 21:50:00 10° NNW
Cosmos 2369 Rocket 3.2 21:42:20 14° SSE 21:45:46 25° ESE 21:50:16 10° NE
USA 215 3.5 21:42:44 15° ESE 21:48:10 60° NE 21:54:37 10° NW
COSMOS 2455 3.5 21:43:49 10° SSE 21:49:00 31° ESE 21:54:12 10° NE
Timation 2 Rocket 4.2 21:43:28 10° NNW 21:49:42 58° ENE 21:54:28 19° SE
Cosmos 2242 Rocket 3.8 21:45:31 10° N 21:49:59 73° W 21:54:25 10° S
Aurora 2 Rocket 3.9 21:47:13 10° SW 21:50:05 17° S 21:51:07 16° S
NOSS 3-2 (C) 3.4 21:45:16 10° SSW 21:51:04 63° ESE 21:57:22 10° NE
OAO 2 Rocket 3.2 21:46:37 10° W 21:51:39 81° S 21:55:18 18° E
Tiangong 2 3.4 21:52:44 10° NW 21:55:18 22° N 21:57:53 10° NE
Resurs 01 Rocket 3.9 21:52:33 10° SSW 21:55:58 22° W 21:59:24 10° NW
Meteor 1-26 Rocket 4.3 21:52:10 10° N 21:57:45 63° E 22:01:55 19° SSE
Meteor 2-3 Rocket 3.7 21:52:22 10° S 21:58:02 65° E 22:03:42 10° NNE
H-2A R/B 3.4 21:56:22 18° ESE 21:58:49 25° ENE 22:03:06 10° NNE
Cosmos 990 Rocket 3.9 21:55:08 10° S 22:00:16 71° ESE 22:05:29 10° NNE
COSMOS 2487 2.5 21:59:56 10° NNW 22:03:29 77° WSW 22:05:21 26° S
Cosmos 1315 Rocket 3.9 21:59:50 10° SSW 22:03:39 45° WNW 22:07:33 10° N
Hubble Space Telescope 1.9 22:00:10 10° WSW 22:03:41 27° S 22:04:38 25° SSE
Cosmos 2150 Rocket 4.4 22:14:01 10° SSW 22:19:23 68° WNW 22:24:43 10° NNE
Cosmos 2344 4.2 22:17:29 23° SSE 22:20:45 32° ESE 22:27:33 10° NE
CENTAUR R/B 3.0 22:22:17 31° SE 22:23:40 34° ESE 22:29:25 10° NE
ATLAS 5 CENTAUR R/B 4.4 22:24:35 10° N 22:28:14 16° NE 22:31:48 11° ENE
Cosmos 1937 Rocket 4.3 22:24:35 10° SW 22:29:33 50° WNW 22:34:33 10° N
H-2A R/B 4.4 22:29:43 10° ENE 22:29:43 10° ENE 22:30:10 10° NE
Cosmos 2082 Rocket 3.7 22:29:32 10° NW 22:34:27 31° WSW 22:38:47 13° SSW
GEOS 3 Rocket 4.3 22:34:44 31° E 22:36:34 43° NE 22:41:28 10° NNW
TIMED 4.4 22:36:20 47° S 22:37:30 72° ESE 22:41:52 10° NNE
MetOp-B 4.3 22:38:59 31° S 22:41:35 71° WSW 22:46:57 10° NNW
ARGOS 3.1 22:39:49 37° S 22:42:03 86° WSW 22:47:27 10° NNW
Aureole 3 3.5 22:53:50 51° WNW 22:53:50 51° WNW 22:56:38 10° N
Cosmos 1825 2.3 22:54:53 69° NNE 22:54:53 69° NNE 22:58:16 10° N
SPOT 1/Viking Rocket 3.4 22:55:11 56° SSE 22:56:19 83° ENE 23:01:33 10° N
Shenzhou-11 Module 3.8 22:54:39 10° NW 22:56:59 29° N 22:56:59 29° N
Landsat 7 3.9 22:58:40 57° E 22:58:56 58° ENE 23:03:36 10° N
DNEPR-1 R/B 3.8 22:59:27 62° ESE 22:59:27 62° ESE 23:04:03 10° NE
Lacrosse 4 Rocket 3.7 22:57:56 10° NNE 23:00:41 16° NE 23:00:54 16° NE
Cosmos 1346 Rocket 4.4 22:57:42 10° NNW 23:01:07 28° W 23:02:16 24° WSW
SPOT 5 3.4 23:02:29 41° SSW 23:04:09 61° W 23:09:28 10° NNW
GPS 2-04 Rocket1 4.3 23:01:11 10° W 23:02:41 23° WSW 23:02:41 23° WSW
Cosmos 2263 4.1 23:03:01 37° SSW 23:05:28 90° ESE 23:11:15 10° NNE
ERS-1 Rocket 4.5 23:03:06 19° SW 23:05:40 30° W 23:10:05 10° NW
Cosmos 158 Rocket 4.3 23:01:38 10° N 23:06:16 45° ENE 23:06:16 45° ENE
Meteor 1-10 Rocket 4.3 23:02:39 10° N 23:08:37 84° W 23:10:06 53° S
Okean 1-7 3.6 23:07:49 10° NNW 23:12:06 52° W 23:12:31 50° WSW
Cosmos 1900 4.3 23:07:27 10° NNW 23:12:39 84° WSW 23:12:59 77° S
Meteor 1-27 Rocket 3.8 23:06:56 10° N 23:12:39 61° E 23:13:07 59° ESE
Terra 2.0 23:14:17 57° ENE 23:14:17 57° ENE 23:18:42 10° N
Cosmos 2221 Rocket 4.3 23:11:17 10° NNW 23:15:30 46° W 23:15:59 44° WSW
SL-19 R/B 4.5 23:11:02 10° NNE 23:16:57 58° ESE 23:17:15 58° ESE
Cosmos 1408 3.8 23:17:38 39° WNW 23:17:38 39° WNW 23:20:56 10° N
Cosmos 1733 Rocket 3.7 23:18:57 46° NNE 23:18:57 46° NNE 23:22:06 10° NNE
Cosmos 468 4.3 23:14:10 10° NNW 23:19:28 90° ENE 23:19:41 83° SSE
Cosmos 1269 Rocket 4.1 23:18:50 10° N 23:23:58 62° ENE 23:23:58 62° ENE
Cosmos 1943 Rocket 2.2 23:25:37 54° SW 23:26:52 76° WNW 23:32:28 10° NNE
IGS 5A 4.2 23:29:21 49° N 23:29:21 49° N 23:32:27 10° N
SME Rocket 4.3 23:28:32 51° E 23:29:14 54° ENE 23:36:53 10° N
Cosmos 2369 Rocket 3.4 23:24:15 10° SW 23:29:30 39° WNW 23:34:49 10° N
Cosmos 1782 4.2 23:27:01 10° NNW 23:30:19 33° W 23:30:19 33° W
USA 215 4.2 23:30:05 31° SSW 23:31:19 33° SW 23:37:08 10° WNW
Cosmos 1606 4.3 23:29:13 10° NNW 23:31:56 31° WNW 23:31:56 31° WNW
Tiangong 2 3.9 23:29:38 10° NW 23:30:49 19° NW 23:30:49 19° NW
Cosmos 1092 Rocket 3.9 23:33:11 64° E 23:33:13 64° E 23:39:17 10° NNE
COSMOS 2455 4.2 23:29:17 10° WSW 23:34:46 37° WNW 23:40:18 10° N
Cosmos 1125 Rocket 4.3 23:34:36 34° WSW 23:36:20 47° WNW 23:41:24 10° N
Cosmos 1340 4.2 23:32:39 10° NNW 23:35:05 35° NW 23:35:05 35° NW
H-2A R/B 3.1 23:37:00 35° WSW 23:37:58 38° W 23:42:59 10° NNW
Nadezhda 4 Rocket 4.0 23:38:12 64° SSW 23:39:11 79° W 23:45:24 10° N
Meteor 2-20 4.3 23:39:34 76° ESE 23:39:41 77° E 23:45:49 10° N
Milstar 3 3.8 23:38:57 10° WSW 23:44:55 36° SSW 23:44:55 36° SSW
